Mandan, ND

3:23 PM CDT on July 21, 2017 (GMT -0500)
Mandan

Weather History for KY19 - January, 2013

Change the Weather History Date:

Saturday, January 5, 2013

  Actual Average (KBIS) Record (KBIS)
Temperature  
Mean Temperature 14 °F -  
Max Temperature 23 °F 19 °F 59 °F (2012)
Min Temperature 6 °F -1 °F -35 °F (1884)
Degree Days  
Heating Degree Days 50    
Moisture  
Dew Point 12 °F    
Average Humidity 88    
Maximum Humidity 100    
Minimum Humidity 74    
Precipitation  
Precipitation 0.08 in - - ()
Sea Level Pressure  
Sea Level Pressure 30.04 in    
Wind  
Wind Speed 13 mph (WNW)    
Max Wind Speed 24 mph    
Max Gust Speed 33 mph    
Visibility 9 miles    
Events Rain , Snow    
Averages and records for this station are not official NWS values.
T = Trace of Precipitation, MM = Missing Value Source: NWS Daily Summary

Daily Weather History Graph

Daily Weather History Graph

Search for Another Location

Airport or City:

Trip Planner

Search our weather history database for the weather conditions in past years. The results will help you decide how hot, cold, wet, or windy it might be!

Date:

Astronomy

Jan. 05, 2013 Rise Set
Actual Time 8:28 AM CST 5:10 PM CST
Civil Twilight 7:53 AM CST 5:45 PM CST
Nautical Twilight 7:15 AM CST 6:23 PM CST
Astronomical Twilight 6:38 AM CST 7:00 PM CST
Moon 1:23 AM CST (1/5) 12:12 PM CST (1/5)
Length of Visible Light 9h 52m
Length of Day
8h 42m
Last Quarter, 44% of the Moon is Illuminated
Jan 5
Last Quarter
Jan 11
New
Jan 18
First Quarter
Jan 26
Full
Feb 3
Last Quarter

Hourly Weather History & Observations

Time (CST) Temp. Windchill Dew Point Humidity Pressure Visibility Wind Dir Wind Speed Gust Speed Precip Events Conditions
12:15 AM 14.0 °F 3.9 °F 10.4 °F 86% 29.92 in 10.0 mi SW 6.9 mph - N/A   Clear
12:35 AM 14.0 °F 2.9 °F 8.6 °F 79% 29.92 in 10.0 mi WSW 8.1 mph - N/A   Clear
12:55 AM 15.8 °F 3.4 °F 10.4 °F 79% 29.92 in 10.0 mi WSW 10.4 mph - N/A   Clear
1:15 AM 14.0 °F 0.5 °F 10.4 °F 86% 29.91 in 10.0 mi West 11.5 mph - N/A   Clear
1:35 AM 15.8 °F 2.1 °F 10.4 °F 79% 29.91 in 10.0 mi West 12.7 mph - N/A   Clear
1:55 AM 15.8 °F 3.4 °F 12.2 °F 86% 29.91 in 10.0 mi WNW 10.4 mph - N/A   Clear
2:15 AM 15.8 °F 3.4 °F 12.2 °F 86% 29.91 in 10.0 mi West 10.4 mph - N/A   Clear
2:35 AM 17.6 °F 5.7 °F 14.0 °F 86% 29.91 in 10.0 mi West 10.4 mph - N/A   Clear
2:55 AM 21.2 °F 7.8 °F 15.8 °F 80% 29.91 in 10.0 mi West 15.0 mph - N/A   Clear
3:15 AM 23.0 °F 12.4 °F 15.8 °F 74% 29.91 in 10.0 mi West 10.4 mph - N/A   Clear
3:35 AM 21.2 °F 8.9 °F 15.8 °F 80% 29.92 in 10.0 mi West 12.7 mph - N/A   Clear
3:55 AM 23.0 °F 10.1 °F 17.6 °F 80% 29.91 in 10.0 mi West 15.0 mph - N/A   Clear
4:15 AM 23.0 °F 9.6 °F 17.6 °F 80% 29.91 in 10.0 mi West 16.1 mph - N/A   Clear
4:35 AM 23.0 °F 9.2 °F 17.6 °F 80% 29.90 in 10.0 mi West 17.3 mph - N/A   Partly Cloudy
4:55 AM 23.0 °F 8.7 °F 17.6 °F 80% 29.90 in 10.0 mi West 18.4 mph - N/A   Clear
5:15 AM 23.0 °F 7.2 °F 19.4 °F 86% 29.90 in 10.0 mi West 23.0 mph - N/A   Clear
5:35 AM 23.0 °F 7.6 °F 19.4 °F 86% 29.90 in 10.0 mi WNW 21.9 mph - N/A   Mostly Cloudy
6:15 AM 21.2 °F 6.4 °F 17.6 °F 86% 29.93 in 10.0 mi NW 18.4 mph 24.2 mph N/A   Mostly Cloudy
6:35 AM 19.4 °F 5.0 °F 17.6 °F 93% 29.94 in 10.0 mi NW 16.1 mph 21.9 mph N/A   Mostly Cloudy
6:55 AM 19.4 °F 4.1 °F 15.8 °F 86% 29.95 in 8.0 mi NW 18.4 mph 23.0 mph N/A   Overcast
7:15 AM 19.4 °F 4.5 °F 15.8 °F 86% 29.94 in 10.0 mi NW 17.3 mph 23.0 mph N/A   Overcast
7:35 AM 19.4 °F 2.1 °F 15.8 °F 86% 29.95 in 10.0 mi NW 24.2 mph 32.2 mph N/A Snow Light Snow
7:55 AM 17.6 °F 0.5 °F 15.8 °F 93% 29.96 in 9.0 mi NW 21.9 mph 27.6 mph N/A   Mostly Cloudy
8:15 AM 17.6 °F 0.5 °F 14.0 °F 86% 29.97 in 6.0 mi NW 21.9 mph - N/A   Mostly Cloudy
8:35 AM 15.8 °F -1.5 °F 14.0 °F 93% 29.98 in 9.0 mi NW 20.7 mph 28.8 mph N/A   Overcast
8:55 AM 14.0 °F -4.3 °F 10.4 °F 86% 30.00 in 2.0 mi NW 21.9 mph 28.8 mph 0.03 in Snow Light Snow
9:15 AM 12.2 °F -6.3 °F 8.6 °F 85% 30.02 in 5.0 mi NW 20.7 mph 33.4 mph N/A Snow Light Snow
9:55 AM 8.6 °F -12.3 °F 6.8 °F 92% 30.05 in 3.0 mi NNW 24.2 mph 29.9 mph 0.02 in Snow Light Snow
10:15 AM 8.6 °F -11.9 °F 6.8 °F 92% 30.05 in 1.8 mi NNW 23.0 mph 31.1 mph 0.02 in Snow Light Snow
11:15 AM 14.0 °F -4.3 °F 10.4 °F 86% 30.09 in 3.0 mi NNW 21.9 mph 28.8 mph N/A Snow Light Snow
11:55 AM 14.0 °F -3.0 °F 10.4 °F 86% 30.10 in 7.0 mi NNW 18.4 mph 25.3 mph 0.01 in Rain Light Freezing Rain
12:15 PM 14.0 °F -2.0 °F 10.4 °F 86% 30.10 in 10.0 mi NW 16.1 mph 21.9 mph N/A   Overcast
12:35 PM 14.0 °F -2.0 °F 10.4 °F 86% 30.09 in 10.0 mi NW 16.1 mph 21.9 mph N/A   Overcast
12:55 PM 14.0 °F -2.5 °F 12.2 °F 93% 30.09 in 10.0 mi NW 17.3 mph 21.9 mph N/A   Overcast
1:15 PM 14.0 °F -2.0 °F 12.2 °F 93% 30.09 in 10.0 mi NW 16.1 mph - N/A   Overcast
1:35 PM 15.8 °F 0.9 °F 12.2 °F 86% 30.09 in 10.0 mi NW 15.0 mph - N/A Snow Light Snow
1:55 PM 15.8 °F 1.4 °F 12.2 °F 86% 30.09 in 10.0 mi NW 13.8 mph - N/A   Overcast
2:15 PM 14.0 °F -1.4 °F 12.2 °F 93% 30.10 in 10.0 mi NW 15.0 mph - N/A   Overcast
2:35 PM 14.0 °F -1.4 °F 12.2 °F 93% 30.10 in 10.0 mi WNW 15.0 mph - N/A   Overcast
2:55 PM 14.0 °F -1.4 °F 12.2 °F 93% 30.11 in 10.0 mi WNW 15.0 mph - N/A   Overcast
3:15 PM 14.0 °F -0.8 °F 12.2 °F 93% 30.11 in 10.0 mi WNW 13.8 mph - N/A   Overcast
3:35 PM 14.0 °F -1.4 °F 12.2 °F 93% 30.13 in 10.0 mi WNW 15.0 mph - N/A Snow Light Snow
3:55 PM 14.0 °F -1.4 °F 10.4 °F 86% 30.13 in 10.0 mi WNW 15.0 mph - N/A   Mostly Cloudy
4:15 PM 14.0 °F 1.2 °F 10.4 °F 86% 30.14 in 10.0 mi NW 10.4 mph - N/A   Partly Cloudy
4:55 PM 10.4 °F -2.4 °F 8.6 °F 92% 30.13 in 7.0 mi West 9.2 mph - N/A   Clear
5:15 PM 10.4 °F -1.5 °F 8.6 °F 92% 30.13 in 5.0 mi WNW 8.1 mph - N/A   Clear
5:35 PM 8.6 °F -3.7 °F 6.8 °F 92% 30.13 in 4.0 mi West 8.1 mph - N/A   Clear
5:55 PM 6.8 °F -5.9 °F 6.8 °F 100% 30.13 in 5.0 mi West 8.1 mph - N/A   Clear
6:15 PM 8.6 °F -2.6 °F 8.6 °F 100% 30.14 in 5.0 mi West 6.9 mph - N/A   Clear
6:35 PM 8.6 °F -3.7 °F 6.8 °F 92% 30.14 in 6.0 mi West 8.1 mph - N/A   Clear
6:55 PM 8.6 °F -4.7 °F 6.8 °F 92% 30.13 in 7.0 mi West 9.2 mph - N/A   Clear
7:15 PM 8.6 °F -2.6 °F 6.8 °F 92% 30.12 in 10.0 mi WSW 6.9 mph - N/A   Clear
7:35 PM 8.6 °F -3.7 °F 8.6 °F 100% 30.12 in 10.0 mi WSW 8.1 mph - N/A   Clear
7:55 PM 8.6 °F -4.7 °F 8.6 °F 100% 30.11 in 10.0 mi WSW 9.2 mph - N/A   Partly Cloudy
8:15 PM 10.4 °F -1.5 °F 8.6 °F 92% 30.11 in 10.0 mi West 8.1 mph - N/A   Mostly Cloudy
8:35 PM 12.2 °F -1.0 °F 10.4 °F 92% 30.12 in 10.0 mi WSW 10.4 mph - N/A   Partly Cloudy
8:55 PM 12.2 °F 0.7 °F 10.4 °F 92% 30.12 in 10.0 mi West 8.1 mph - N/A   Clear
9:15 PM 12.2 °F -0.2 °F 10.4 °F 92% 30.11 in 10.0 mi WSW 9.2 mph - N/A   Clear
9:35 PM 14.0 °F 0.5 °F 12.2 °F 93% 30.10 in 10.0 mi West 11.5 mph - N/A   Clear
9:55 PM 15.8 °F 4.2 °F 12.2 °F 86% 30.10 in 10.0 mi West 9.2 mph - N/A   Clear
10:15 PM 15.8 °F -0.2 °F 14.0 °F 93% 30.10 in 10.0 mi WNW 17.3 mph - N/A   Clear
10:35 PM 17.6 °F 2.7 °F 14.0 °F 86% 30.11 in 10.0 mi WNW 16.1 mph - N/A   Clear
10:55 PM 15.8 °F -0.2 °F 14.0 °F 93% 30.10 in 10.0 mi West 17.3 mph - N/A   Clear
11:15 PM 17.6 °F 1.7 °F 14.0 °F 86% 30.10 in 10.0 mi West 18.4 mph - N/A   Clear
11:35 PM 17.6 °F 2.7 °F 14.0 °F 86% 30.10 in 10.0 mi West 16.1 mph - N/A   Clear
11:55 PM 17.6 °F 5.0 °F 14.0 °F 86% 30.12 in 10.0 mi WNW 11.5 mph - N/A   Clear